1495666801.06,42099,14.25,73442.8,-5.53,-5.93,-5.81,0,*56
1495666802.31,42100,14.25,73442.8,-5.55,-5.81,-5.81,0,*52
1495666803.59,42101,14.25,73442.8,-5.53,-5.73,-5.85,0,*5C
1495666804.87,42102,14.25,73442.8,-5.53,-5.93,-5.85,0,*51
1495666806.15,42103,14.25,73442.0,-5.53,-5.81,-5.81,0,*57
1495666807.42,42104,14.25,73442.8,-5.53,-5.73,-5.81,0,*5D
1495666808.67,42105,14.25,73442.3,-5.51,-5.93,-5.93,0,*53
1495666809.9,42106,14.25,73440.8,-5.53,-5.97,-5.97,0,*52
1495666811.12,42107,14.25,73436.8,-5.53,-6.09,-6.09,0,*53
1495666812.35,42108,14.25,73436.8,-5.53,-6.09,-6.09,0,*5C
1495666813.57,42109,14.25,73440.3,-5.53,-6.05,-6.09,0,*51
1495666814.78,42110,14.25,73440.3,-5.53,-6.05,-6.05,0,*55
1495666815.98,42111,14.25,73442.5,-5.51,-6.05,-6.01,0,*52
1495666817.2,42112,14.25,73436.8,-5.53,-6.09,-6.05,0,*5B
1495666818.45,42113,14.25,73440.3,-5.53,-5.97,-5.93,0,*52
1495666819.67,42114,14.25,73442.5,-5.53,-5.97,-5.97,0,*51
1495666820.9,42115,14.25,73442.5,-5.51,-6.01,-5.93,0,*5A
1495666822.18,42116,14.25,73442.0,-5.53,-5.93,-5.85,0,*54
1495666823.43,42117,14.25,73438.8,-5.51,-5.65,-5.77,0,*53
1495666824.68,42118,14.25,73442.5,-5.51,-5.77,-5.77,0,*5F
1495666825.93,42119,14.25,73438.3,-5.51,-5.93,-5.93,0,*5E
1495666827.18,42120,14.25,73440.8,-5.51,-5.89,-5.93,0,*5F
1495666828.43,42121,14.25,73442.5,-5.53,-5.97,-5.85,0,*54
1495666829.69,42122,14.25,73436.0,-5.51,-5.89,-5.93,0,*5D
1495666830.94,42123,14.25,73438.3,-5.51,-5.81,-5.81,0,*57
1495666832.19,42124,14.25,73440.0,-5.51,-5.93,-5.89,0,*5B
1495666833.45,42125,14.25,73438.5,-5.51,-5.93,-5.93,0,*51
1495666834.67,42126,14.25,73440.3,-5.51,-6.01,-5.93,0,*5A
1495666835.92,42127,14.25,73444.0,-5.49,-6.01,-5.93,0,*52
1495666837.17,42128,14.25,73444.3,-5.49,-6.01,-5.93,0,*5D
1495666838.42,42129,14.25,73446.3,-5.49,-5.93,-6.01,0,*5C
1495666839.67,42130,14.25,73442.5,-5.51,-5.93,-5.93,0,*55
1495666840.95,42131,14.25,73442.0,-5.49,-5.93,-5.89,0,*56
1495666842.23,42132,14.25,73440.0,-5.49,-5.93,-5.93,0,*5E
1495666843.48,42133,14.25,73440.8,-5.45,-5.97,-5.89,0,*5C
1495666844.7,42134,14.25,73442.5,-5.49,-6.01,-6.01,0,*58
1495666845.92,42135,14.25,73442.0,-5.49,-6.01,-6.01,0,*59
1495666847.2,42136,14.25,73438.5,-5.49,-5.93,-5.93,0,*5A
1495666848.44,42137,14.25,73442.3,-5.49,-6.05,-5.93,0,*57
1495666849.69,42138,14.25,73436.5,-5.49,-6.05,-5.93,0,*58
1495666850.91,42139,14.25,73436.3,-5.45,-5.97,-5.97,0,*59
1495666852.17,42140,14.25,73438.5,-5.45,-5.97,-5.89,0,*58
1495666853.39,42141,14.25,73436.5,-5.45,-5.97,-5.97,0,*56
1495666854.61,42142,14.25,73438.8,-5.49,-6.01,-6.05,0,*5D
1495666855.89,42143,14.25,73440.8,-5.45,-5.89,-5.89,0,*54
1495666857.17,42144,14.25,73440.3,-5.45,-5.85,-5.77,0,*5E
1495666858.42,42145,14.25,73440.3,-5.45,-5.97,-5.85,0,*51
1495666859.7,42146,14.25,73444.5,-5.49,-5.93,-5.89,0,*56
1495666860.97,42147,14.25,73440.0,-5.45,-5.73,-5.73,0,*50
1495666862.24,42148,14.25,73444.5,-5.45,-5.77,-5.77,0,*5F
1495666863.52,42149,14.25,73442.8,-5.45,-5.77,-5.77,0,*5E
1495666864.79,42150,14.25,73446.5,-5.45,-5.65,-5.73,0,*51
1495666866.07,42151,14.25,73440.8,-5.45,-5.85,-5.77,0,*5A
1495666867.35,42152,14.25,73444.3,-5.45,-5.89,-5.85,0,*58
1495666868.6,42153,14.25,73446.3,-5.43,-5.81,-5.81,0,*53
1495666869.85,42154,14.25,73442.8,-5.43,-5.85,-5.85,0,*54
1495666871.08,42155,14.25,73444.5,-5.45,-5.97,-5.97,0,*53
1495666872.3,42156,14.25,73440.0,-5.45,-5.97,-5.97,0,*50
1495666873.58,42157,14.25,73440.0,-5.41,-5.85,-5.85,0,*55
1495666874.84,42158,14.25,73440.5,-5.43,-5.85,-5.93,0,*5F
1495666876.06,42159,14.25,73440.0,-5.45,-6.01,-6.01,0,*5F
1495666877.26,42160,14.25,73442.0,-5.43,-5.97,-5.97,0,*53
1495666878.51,42161,14.25,73436.3,-5.43,-5.93,-5.93,0,*52
1495666879.76,42162,14.25,73442.5,-5.43,-5.93,-5.93,0,*51
1495666881.04,42163,14.25,73440.8,-5.45,-5.89,-5.85,0,*5A
1495666882.3,42164,14.25,73438.3,-5.43,-5.81,-5.81,0,*57
1495666883.55,42165,14.25,73438.5,-5.43,-5.69,-5.61,0,*5E
1495666884.81,42166,14.25,73438.0,-5.43,-5.85,-5.85,0,*55
1495666886.06,42167,14.25,73434.0,-5.43,-5.93,-5.93,0,*54
1495666887.31,42168,14.25,73432.0,-5.43,-5.85,-5.81,0,*5F
1495666888.59,42169,14.25,73430.3,-5.41,-5.69,-5.73,0,*53
1495666889.86,42170,14.25,73424.5,-5.41,-5.69,-5.73,0,*5B
1495666891.14,42171,14.25,73426.3,-5.41,-5.69,-5.69,0,*51
1495666892.41,42172,14.25,73428.0,-5.41,-5.69,-5.69,0,*52
1495666893.68,42173,14.25,73430.0,-5.41,-5.73,-5.73,0,*53
1495666894.96,42174,14.25,73430.5,-5.41,-5.69,-5.69,0,*54
1495666896.2,42175,14.25,73428.5,-5.39,-5.65,-5.69,0,*56
1495666897.45,42176,14.25,73430.3,-5.39,-5.65,-5.65,0,*59
1495666898.72,42177,14.25,73428.8,-5.41,-5.73,-5.73,0,*57
1495666899.96,42178,14.25,73430.3,-5.39,-5.69,-5.69,0,*57
1495666901.21,42179,14.25,73426.5,-5.39,-5.69,-5.69,0,*56
1495666902.46,42180,14.25,73426.0,-5.39,-5.69,-5.77,0,*5F
1495666903.7,42181,14.25,73426.0,-5.39,-5.65,-5.69,0,*5D
1495666904.95,42182,14.25,73426.3,-5.39,-5.69,-5.69,0,*52
1495666906.2,42183,14.25,73426.5,-5.35,-5.65,-5.65,0,*5F
1495666907.46,42184,14.25,73430.3,-5.33,-5.73,-5.73,0,*5E
1495666908.72,42185,14.25,73430.3,-5.33,-5.77,-5.77,0,*5F
1495666909.99,42186,14.25,73430.8,-5.33,-5.73,-5.73,0,*5C
1495666911.23,42187,14.25,73428.3,-5.35,-5.65,-5.73,0,*5C
1495666912.49,42188,14.25,73434.8,-5.33,-5.77,-5.77,0,*52
1495666913.74,42189,14.25,73434.0,-5.35,-5.85,-5.73,0,*5C
1495666914.98,42190,14.25,73436.0,-5.35,-5.73,-5.73,0,*5D
1495666916.25,42191,14.25,73434.0,-5.33,-5.77,-5.85,0,*57
1495666917.51,42192,14.25,73434.8,-5.33,-5.73,-5.77,0,*5D
1495666918.79,42193,14.25,73434.5,-5.33,-5.85,-5.89,0,*54
1495666920.06,42194,14.25,73430.8,-5.33,-5.85,-5.89,0,*53
1495666921.34,42195,14.25,73436.3,-5.33,-5.85,-5.85,0,*5E
1495666922.62,42196,14.25,73434.5,-5.33,-5.85,-5.85,0,*5D
1495666923.9,42197,14.25,73434.8,-5.33,-5.85,-5.85,0,*5C
1495666925.18,42198,14.25,73434.3,-5.33,-5.85,-5.85,0,*53
1495666926.44,42199,14.25,73434.0,-5.33,-5.77,-5.77,0,*52
1495666927.71,42200,14.25,73434.5,-5.33,-5.65,-5.73,0,*56
1495666928.98,42201,14.25,73438.3,-5.33,-5.65,-5.73,0,*57
1495666930.2,42202,14.25,73438.0,-5.31,-5.43,-5.43,0,*51
1495666931.48,42203,14.25,73436.5,-5.31,-5.69,-5.61,0,*58
1495666932.71,42204,14.25,73438.0,-5.31,-5.43,-5.55,0,*50
1495666933.94,42205,14.25,73438.5,-5.31,-5.47,-5.47,0,*56
1495666935.22,42206,14.25,73434.8,-5.31,-5.61,-5.61,0,*55
1495666936.47,42207,14.25,73432.8,-5.29,-5.61,-5.61,0,*5D
1495666937.69,42208,14.25,73434.8,-5.31,-5.43,-5.43,0,*5B
1495666938.9,42209,14.25,73432.0,-5.29,-5.47,-5.43,0,*57
1495666940.15,42210,14.25,73430.3,-5.29,-5.61,-5.61,0,*5B
1495666941.43,42211,14.25,73424.0,-5.31,-5.61,-5.61,0,*53
1495666942.65,42212,14.25,73428.5,-5.29,-5.55,-5.55,0,*59
1495666943.87,42213,14.25,73426.0,-5.29,-5.61,-5.47,0,*5C
1495666945.1,42214,14.25,73428.3,-5.29,-5.61,-5.55,0,*58
1495666946.34,42215,14.25,73428.0,-5.29,-5.61,-5.55,0,*59
1495666947.54,42216,14.25,73426.5,-5.29,-5.47,-5.47,0,*5D
1495666948.74,42217,14.25,73424.3,-5.25,-5.39,-5.39,0,*50
1495666949.96,42218,14.25,73426.8,-5.27,-5.39,-5.39,0,*5D
1495666951.16,42219,14.25,73428.3,-5.25,-5.39,-5.39,0,*5E
1495666952.36,42220,14.25,73430.8,-5.25,-5.43,-5.39,0,*59
1495666953.55,42221,14.25,73438.0,-5.25,-5.43,-5.39,0,*58
1495666954.81,42222,14.25,73442.3,-5.25,-5.31,-5.31,0,*56
1495666956.07,42223,14.25,73444.3,-5.21,-5.27,-5.27,0,*53
1495666957.32,42224,14.25,73440.0,-5.21,-5.19,-5.19,0,*54
1495666958.58,42225,14.25,73434.0,-5.21,-5.23,-5.27,0,*51
1495666959.83,42226,14.25,73432.0,-5.21,-5.27,-5.27,0,*56
1495666961.09,42227,14.25,73428.8,-5.21,-5.27,-5.27,0,*57
1495666962.37,42228,14.25,73428.0,-5.19,-5.27,-5.27,0,*53
1495666963.65,42229,14.25,73430.3,-5.19,-5.27,-5.27,0,*52
1495666964.9,42230,14.25,73428.0,-5.19,-5.35,-5.27,0,*59
1495666966.15,42231,14.25,73430.5,-5.19,-5.35,-5.27,0,*58
1495666967.37,42232,14.25,73430.8,-5.19,-5.35,-5.35,0,*58
1495666968.63,42233,14.25,73432.5,-5.17,-5.31,-5.31,0,*57
1495666969.88,42234,14.25,73434.5,-5.17,-5.31,-5.31,0,*50
1495666971.14,42235,14.25,73434.3,-5.17,-5.31,-5.23,0,*52
1495666972.39,42236,14.25,73432.5,-5.13,-5.31,-5.27,0,*51
1495666973.64,42237,14.25,73430.8,-5.13,-5.27,-5.27,0,*57
1495666974.9,42238,14.25,73428.8,-5.13,-5.19,-5.27,0,*55
1495666976.15,42239,14.25,73428.3,-5.13,-5.19,-5.19,0,*59
1495666977.4,42240,14.25,73428.0,-5.13,-5.31,-5.27,0,*50
1495666978.68,42241,14.25,73432.3,-5.11,-5.31,-5.31,0,*54
1495666979.9,42242,14.25,73430.5,-5.11,-5.39,-5.43,0,*5A
1495666981.11,42243,14.25,73436.3,-5.11,-5.43,-5.39,0,*5B
1495666982.33,42244,14.25,73438.8,-5.11,-5.39,-5.43,0,*5C
1495666983.54,42245,14.25,73436.3,-5.11,-5.43,-5.43,0,*50
1495666984.76,42246,14.25,73434.5,-5.11,-5.39,-5.43,0,*5E
1495666985.99,42247,14.25,73432.8,-5.09,-5.35,-5.27,0,*58
1495666987.26,42248,14.25,73436.8,-5.11,-5.31,-5.31,0,*5D
1495666988.46,42249,14.25,73434.0,-5.09,-5.35,-5.35,0,*55
1495666989.65,42250,14.25,73434.5,-5.09,-5.35,-5.35,0,*5D
1495666990.87,42251,14.25,73434.0,-5.11,-5.39,-5.43,0,*58
1495666992.07,42252,14.25,73434.5,-5.09,-5.39,-5.39,0,*5F
1495666993.26,42253,14.25,73434.5,-5.09,-5.39,-5.39,0,*5E
1495666994.48,42254,14.25,73436.0,-5.11,-5.43,-5.51,0,*53
1495666995.68,42255,14.25,73436.3,-5.09,-5.47,-5.39,0,*51
1495666996.88,42256,14.25,73436.0,-5.09,-5.47,-5.39,0,*52
1495666998.07,42257,14.25,73438.0,-5.09,-5.39,-5.35,0,*56
1495666999.27,42258,14.25,73440.3,-5.09,-5.35,-5.35,0,*55
1495667000.49,42259,14.25,73438.0,-5.09,-5.39,-5.27,0,*5B
1495667001.69,42260,14.25,73440.0,-5.09,-5.39,-5.39,0,*5E
1495667002.88,42261,14.25,73442.3,-5.09,-5.35,-5.35,0,*5F
1495667004.08,42262,14.25,73438.8,-5.09,-5.35,-5.35,0,*5C
1495667005.3,42263,14.25,73440.3,-5.09,-5.39,-5.27,0,*52
1495667006.52,42264,14.25,73440.0,-5.07,-5.35,-5.35,0,*54
1495667007.74,42265,14.25,73442.0,-5.07,-5.43,-5.43,0,*55
1495667008.95,42266,14.25,73442.8,-5.07,-5.43,-5.35,0,*57
1495667010.17,42267,14.25,73436.0,-5.07,-5.47,-5.43,0,*53
1495667011.39,42268,14.25,73442.3,-5.07,-5.47,-5.43,0,*5C
1495667012.61,42269,14.25,73442.8,-5.07,-5.47,-5.47,0,*59
1495667013.83,42270,14.25,73436.3,-5.07,-5.47,-5.43,0,*55
1495667015.08,42271,14.25,73434.3,-5.07,-5.61,-5.55,0,*57
1495667016.33,42272,14.25,73436.5,-5.07,-5.35,-5.31,0,*57
1495667017.55,42273,14.25,73436.8,-5.07,-5.47,-5.47,0,*52
1495667018.76,42274,14.25,73432.3,-5.05,-5.55,-5.55,0,*57
1495667020.02,42275,14.25,73432.5,-5.07,-5.55,-5.61,0,*53
1495667021.27,42276,14.25,73440.5,-5.07,-5.61,-5.55,0,*50
1495667022.48,42277,14.19,73438.3,-5.05,-5.55,-5.55,0,*54
1495667023.73,42278,14.25,73440.0,-5.07,-5.55,-5.61,0,*5E
1495667024.96,42279,14.25,73436.5,-5.07,-5.55,-5.55,0,*58
1495667026.19,42280,14.25,73432.3,-5.07,-5.55,-5.47,0,*5D
1495667027.44,42281,14.25,73434.8,-5.05,-5.61,-5.69,0,*55
1495667028.69,42282,14.25,73438.5,-5.05,-5.61,-5.69,0,*56
1495667029.96,42283,14.25,73442.0,-5.07,-5.69,-5.61,0,*55
1495667031.23,42284,14.25,73440.5,-5.07,-5.69,-5.73,0,*51
1495667032.44,42285,14.25,73440.3,-5.05,-5.55,-5.55,0,*59
1495667033.71,42286,14.25,73436.8,-5.07,-5.61,-5.61,0,*58
1495667034.98,42287,14.25,73438.3,-5.07,-5.69,-5.69,0,*59
1495667036.25,42288,14.25,73440.3,-5.07,-5.69,-5.69,0,*56
1495667037.53,42289,14.25,73440.3,-5.07,-5.61,-5.61,0,*57
1495667038.76,42290,14.25,73436.3,-5.07,-5.55,-5.55,0,*5F
1495667039.99,42291,14.25,73442.3,-5.07,-5.55,-5.55,0,*5E
1495667041.26,42292,14.25,73440.8,-5.07,-5.61,-5.61,0,*5D
1495667042.53,42293,14.25,73440.3,-5.07,-5.69,-5.73,0,*57
1495667043.8,42294,14.25,73436.8,-5.07,-5.69,-5.69,0,*5B
1495667045.06,42295,14.25,73438.3,-5.07,-5.73,-5.73,0,*5A
1495667046.33,42296,14.25,73440.8,-5.07,-5.69,-5.73,0,*52
1495667047.6,42297,14.25,73442.5,-5.07,-5.61,-5.69,0,*50
1495667048.87,42298,14.25,73436.8,-5.07,-5.73,-5.69,0,*5C
1495667050.13,42299,14.25,73436.3,-5.07,-5.73,-5.73,0,*56
1495667051.4,42300,14.25,73442.8,-5.07,-5.81,-5.81,0,*57
1495667052.67,42301,14.25,73440.3,-5.07,-5.81,-5.85,0,*52
1495667053.93,42302,14.25,73442.0,-5.05,-5.85,-5.81,0,*53
1495667055.18,42303,14.25,73442.0,-5.09,-5.85,-5.85,0,*5A
1495667056.45,42304,14.25,73442.3,-5.07,-5.73,-5.69,0,*58
1495667057.69,42305,14.25,73446.3,-5.05,-5.73,-5.73,0,*50
1495667058.96,42306,14.25,73442.5,-5.07,-5.81,-5.81,0,*51
1495667060.24,42307,14.25,73444.0,-5.07,-5.85,-5.85,0,*50
1495667061.5,42308,14.25,73444.8,-5.09,-5.85,-5.85,0,*51
1495667062.75,42309,14.25,73440.3,-5.09,-5.77,-5.85,0,*5D
1495667064.0,42310,14.25,73440.3,-5.09,-5.77,-5.85,0,*55
1495667065.25,42311,14.25,73440.5,-5.09,-5.77,-5.77,0,*59
1495667066.5,42312,14.25,73442.8,-5.09,-5.89,-5.85,0,*56
1495667067.75,42313,14.25,73442.0,-5.09,-5.89,-5.89,0,*5B
1495667068.99,42314,14.25,73440.0,-5.11,-5.93,-5.97,0,*51
1495667070.21,42315,14.25,73442.0,-5.11,-5.97,-5.97,0,*54
1495667071.43,42316,14.25,73446.8,-5.09,-6.01,-5.93,0,*56
1495667072.68,42317,14.25,73444.5,-5.09,-5.93,-5.93,0,*5F
1495667073.96,42318,14.25,73442.0,-5.11,-5.89,-5.85,0,*55
1495667075.22,42319,14.25,73442.5,-5.09,-5.85,-5.85,0,*51
1495667076.49,42320,14.25,73440.0,-5.11,-5.93,-5.89,0,*59
1495667077.73,42321,14.25,73440.5,-5.09,-5.73,-5.77,0,*5E
1495667079.0,42322,14.25,73440.5,-5.11,-5.69,-5.65,0,*5C
1495667080.25,42323,14.25,73438.3,-5.09,-5.61,-5.61,0,*58
1495667081.49,42324,14.25,73440.0,-5.09,-5.73,-5.65,0,*58
1495667082.74,42325,14.25,73440.5,-5.09,-5.65,-5.61,0,*5A
1495667083.99,42326,14.25,73438.5,-5.09,-5.61,-5.61,0,*5D
1495667085.22,42327,14.25,73438.5,-5.09,-5.51,-5.61,0,*5F
1495667086.47,42328,14.25,73440.3,-5.09,-5.61,-5.61,0,*53
1495667087.69,42329,14.25,73436.8,-5.09,-5.61,-5.51,0,*51
1495667088.92,42330,14.25,73442.0,-5.07,-5.55,-5.47,0,*57
1495667090.15,42331,14.25,73440.0,-5.07,-5.47,-5.55,0,*56
1495667091.36,42332,14.25,73444.3,-5.07,-5.43,-5.43,0,*56
1495667092.56,42333,14.25,73440.0,-5.05,-5.47,-5.43,0,*51
1495667093.77,42334,14.25,73436.0,-5.07,-5.43,-5.35,0,*51
1495667095.0,42335,14.25,73432.8,-5.05,-5.31,-5.35,0,*57
1495667096.19,42336,14.25,73432.5,-5.05,-5.43,-5.35,0,*51
1495667097.42,42337,14.25,73432.0,-5.05,-5.43,-5.31,0,*54
1495667098.62,42338,14.25,73434.0,-5.05,-5.47,-5.43,0,*5A
1495667099.85,42339,14.25,73432.8,-5.05,-5.35,-5.31,0,*5B
1495667101.04,42340,14.25,73428.5,-5.05,-5.35,-5.35,0,*51
1495667102.29,42341,14.25,73438.3,-5.03,-5.39,-5.31,0,*5E
1495667103.57,42342,14.25,73440.5,-5.03,-5.31,-5.31,0,*55
1495667104.84,42343,14.25,73434.0,-5.03,-5.15,-5.15,0,*54
1495667106.09,42344,14.25,73432.8,-5.01,-5.03,-5.03,0,*51
1495667107.34,42345,14.25,73432.0,-5.01,-5.15,-5.15,0,*50
1495667108.61,42346,14.25,73436.5,-5.03,-5.19,-5.19,0,*51
1495667109.86,42347,14.25,73438.3,-5.01,-5.19,-5.19,0,*52
1495667111.11,42348,14.25,73442.8,-5.01,-5.31,-5.27,0,*5A
1495667112.36,42349,14.25,73442.8,-5.01,-5.31,-5.31,0,*5C
1495667113.63,42350,14.25,73436.8,-5.03,-5.27,-5.19,0,*5B
1495667114.88,42351,14.25,73436.0,-5.01,-5.31,-5.31,0,*55
1495667116.13,42352,14.25,73434.3,-5.01,-5.27,-5.31,0,*51
1495667117.37,42353,14.25,73436.3,-4.95,-5.11,-5.15,0,*5F
1495667118.65,42354,14.25,73442.5,-4.97,-5.15,-5.15,0,*5E
1495667119.9,42355,14.25,73438.3,-4.95,-5.11,-5.11,0,*5D
1495667121.15,42356,14.25,73430.8,-4.95,-5.15,-5.15,0,*5E
1495667122.42,42357,14.25,73428.8,-4.97,-5.15,-5.15,0,*5D
1495667123.67,42358,14.25,73434.3,-4.95,-5.15,-5.11,0,*54
1495667124.92,42359,14.25,73438.8,-4.95,-5.11,-5.15,0,*55
1495667126.17,42360,14.25,73434.5,-4.95,-5.23,-5.15,0,*5E
1495667127.42,42361,14.25,73436.8,-4.95,-5.23,-5.15,0,*5F
1495667128.67,42362,14.25,73440.3,-4.95,-5.23,-5.15,0,*5C
1495667129.95,42363,14.25,73438.3,-4.93,-5.07,-5.07,0,*5E
1495667131.23,42364,14.25,73436.8,-4.93,-5.07,-5.07,0,*59
1495667132.52,42365,14.25,73436.5,-4.93,-5.07,-5.07,0,*58
1495667133.76,42366,14.25,73436.8,-4.93,-5.07,-4.99,0,*5D
1495667135.05,42367,14.25,73438.5,-4.93,-5.07,-5.07,0,*5A
1495667136.29,42368,14.25,73440.8,-4.91,-5.11,-5.11,0,*57
1495667137.54,42369,14.25,73442.0,-4.91,-5.19,-5.23,0,*5F
1495667138.8,42370,14.25,73438.8,-4.91,-5.23,-5.23,0,*5E
1495667140.06,42371,14.25,73436.5,-4.91,-5.23,-5.23,0,*5F
1495667141.31,42372,14.25,73438.5,-4.91,-5.19,-5.23,0,*55
1495667142.56,42373,14.25,73440.0,-4.91,-5.19,-5.19,0,*5D
1495667143.81,42374,14.25,73440.5,-4.91,-5.23,-5.19,0,*53
1495667145.06,42375,14.25,73446.3,-4.91,-5.11,-5.19,0,*53
1495667146.34,42376,14.25,73444.5,-4.89,-5.15,-5.15,0,*51
1495667147.62,42377,14.25,73442.8,-4.89,-5.03,-5.03,0,*50
1495667148.88,42378,14.25,73440.8,-4.87,-5.03,-5.03,0,*51
1495667150.16,42379,14.25,73438.8,-4.89,-5.03,-5.03,0,*5E
1495667151.41,42380,14.25,73436.5,-4.87,-5.03,-5.03,0,*56
1495667152.69,42381,14.25,73436.3,-4.89,-5.03,-5.03,0,*59
1495667153.91,42382,14.25,73438.8,-4.85,-4.99,-4.99,0,*56
1495667155.15,42383,14.25,73438.0,-4.87,-4.93,-5.03,0,*5D
1495667156.41,42384,14.25,73438.0,-4.87,-5.03,-5.03,0,*52
1495667157.59,42385,14.25,73440.3,-4.83,-4.99,-4.99,0,*57
1495667158.81,42386,14.25,73438.0,-4.85,-4.99,-4.99,0,*52
1495667160.05,42387,14.25,73434.8,-4.85,-4.99,-4.89,0,*52
1495667161.3,42388,14.25,73434.8,-4.85,-4.99,-4.89,0,*5D
1495667162.58,42389,14.25,73436.3,-4.85,-5.03,-5.03,0,*5D
1495667163.83,42390,14.25,73438.3,-4.83,-5.03,-5.03,0,*53
1495667165.06,42391,14.25,73438.5,-4.83,-4.99,-5.03,0,*50
1495667166.28,42392,14.25,73440.3,-4.83,-5.03,-4.99,0,*53
1495667167.5,42393,14.25,73442.3,-4.83,-5.03,-4.99,0,*52
1495667168.74,42394,14.25,73438.0,-4.85,-4.99,-5.03,0,*53
1495667169.93,42395,14.25,73440.3,-4.83,-4.99,-4.99,0,*56
1495667171.12,42396,14.25,73442.5,-4.83,-4.99,-4.99,0,*55
1495667172.31,42397,14.25,73440.3,-4.83,-4.99,-4.99,0,*54
1495667173.57,42398,14.25,73442.3,-4.81,-4.81,-4.85,0,*5D
1495667174.81,42399,14.25,73442.5,-4.79,-4.77,-4.69,0,*50
1495667176.05,42400,14.25,73442.8,-4.79,-4.77,-4.69,0,*57
1495667177.31,42401,14.25,73448.0,-4.81,-4.85,-4.81,0,*5A
1495667178.55,42402,14.25,73448.0,-4.79,-4.85,-4.85,0,*5A
1495667179.79,42403,14.25,73448.3,-4.79,-4.85,-4.85,0,*5B
1495667181.02,42404,14.25,73450.0,-4.79,-4.93,-4.93,0,*5C
1495667182.23,42405,14.25,73450.0,-4.79,-4.99,-4.93,0,*57
1495667183.47,42406,14.25,73448.0,-4.81,-4.93,-4.99,0,*53
1495667184.74,42407,14.25,73450.5,-4.77,-4.89,-4.89,0,*51
1495667186.01,42408,14.25,73446.8,-4.77,-4.89,-4.89,0,*5E
1495667187.28,42409,14.25,73444.3,-4.77,-4.93,-4.89,0,*54
1495667188.56,42410,14.25,73448.5,-4.77,-4.89,-4.89,0,*57
1495667189.82,42411,14.25,73448.5,-4.73,-4.85,-4.89,0,*5E
1495667191.1,42412,14.25,73442.5,-4.77,-5.07,-5.03,0,*51
1495667192.37,42413,14.25,73444.0,-4.77,-4.93,-4.93,0,*54
1495667193.61,42414,14.25,73444.8,-4.73,-5.03,-4.99,0,*55
1495667194.85,42415,14.25,73444.5,-4.73,-4.99,-4.89,0,*57
1495667196.1,42416,14.25,73446.8,-4.73,-5.03,-4.99,0,*57
1495667197.34,42417,14.25,73446.3,-4.73,-4.89,-4.99,0,*55
1495667198.55,42418,14.25,73444.8,-4.73,-4.99,-4.99,0,*5B
1495667199.79,42419,14.25,73440.8,-4.73,-4.89,-4.99,0,*5B
1495667201.06,42420,14.25,73444.8,-4.73,-4.89,-4.89,0,*50
1495667202.33,42421,14.25,73442.3,-4.73,-4.85,-4.85,0,*51
1495667203.57,42422,14.25,73440.0,-4.73,-4.99,-4.89,0,*53
1495667204.84,42423,14.25,73446.0,-4.73,-5.03,-5.03,0,*53
1495667206.12,42424,14.25,73444.3,-4.73,-5.03,-5.03,0,*54
1495667207.34,42425,14.25,73444.3,-4.71,-5.03,-4.99,0,*55
1495667208.59,42426,14.25,73442.8,-4.71,-5.03,-5.03,0,*54
1495667209.79,42427,14.25,73444.5,-4.69,-4.99,-4.99,0,*5C
1495667211.04,42428,14.25,73442.5,-4.71,-5.03,-5.11,0,*59
1495667212.28,42429,14.25,73440.3,-4.71,-5.03,-5.11,0,*58
1495667213.52,42430,14.25,73442.3,-4.71,-5.11,-5.15,0,*57
1495667214.77,42431,14.25,73444.5,-4.71,-5.15,-5.11,0,*56
1495667216.01,42432,14.25,73444.0,-4.71,-5.15,-5.15,0,*51
1495667217.25,42433,14.25,73444.8,-4.71,-5.11,-5.11,0,*50
1495667218.43,42434,14.25,73446.0,-4.71,-4.99,-4.99,0,*57
1495667219.65,42435,14.25,73444.3,-4.71,-5.03,-4.99,0,*54
1495667220.83,42436,14.25,73446.3,-4.71,-4.99,-4.99,0,*55
1495667222.06,42437,14.25,73446.5,-4.71,-5.11,-5.11,0,*54
1495667223.3,42438,14.25,73446.0,-4.71,-5.11,-5.15,0,*5F
1495667224.58,42439,14.25,73440.0,-4.67,-5.11,-5.07,0,*5A
1495667225.82,42440,14.25,73440.8,-4.71,-5.11,-5.03,0,*57
1495667227.06,42441,14.25,73444.3,-4.69,-5.07,-4.99,0,*5A
1495667228.31,42442,14.25,73444.0,-4.71,-5.03,-5.03,0,*56
1495667229.52,42443,14.25,73446.0,-4.71,-5.03,-4.99,0,*55
1495667230.75,42444,14.25,73436.3,-4.69,-4.93,-4.99,0,*53
1495667232.0,42445,14.25,73440.5,-4.71,-5.03,-5.03,0,*51
1495667233.18,42446,14.25,73442.5,-4.71,-4.99,-4.99,0,*52
1495667234.42,42447,14.25,73440.8,-4.69,-5.07,-4.99,0,*5C
1495667235.7,42448,14.25,73442.8,-4.69,-5.07,-5.19,0,*5A
1495667236.96,42449,14.25,73444.5,-4.69,-5.11,-5.11,0,*54
1495667238.23,42450,14.25,73448.5,-4.69,-5.19,-5.11,0,*54
1495667239.5,42451,14.25,73446.0,-4.67,-5.11,-5.19,0,*5B
1495667240.77,42452,14.25,73446.0,-4.69,-5.07,-5.11,0,*59
1495667242.01,42453,14.25,73440.8,-4.69,-4.99,-4.93,0,*55
1495667243.28,42454,14.25,73440.0,-4.69,-5.07,-5.07,0,*58
1495667244.55,42455,14.25,73440.5,-4.69,-5.07,-5.11,0,*5E
1495667245.83,42456,14.25,73442.3,-4.67,-5.11,-5.07,0,*53
1495667247.11,42457,14.25,73440.8,-4.67,-5.07,-5.11,0,*52
1495667248.37,42458,14.25,73446.3,-4.69,-5.11,-5.11,0,*54
1495667249.58,42459,14.25,73442.3,-4.67,-4.99,-4.99,0,*5B
1495667250.85,42460,14.25,73442.0,-4.67,-4.93,-4.81,0,*52
1495667252.11,42461,14.25,73446.3,-4.67,-4.85,-4.85,0,*50
1495667253.35,42462,14.25,73444.8,-4.65,-4.89,-4.93,0,*5A
1495667254.59,42463,14.25,73444.5,-4.67,-4.99,-4.93,0,*58
1495667255.84,42464,14.25,73444.8,-4.67,-4.99,-4.85,0,*58
1495667257.08,42465,14.25,73446.0,-4.65,-4.89,-4.93,0,*5D
1495667258.32,42466,14.25,73442.5,-4.67,-4.99,-4.93,0,*5D
1495667259.56,42467,14.25,73442.3,-4.65,-4.89,-4.93,0,*5F
1495667260.8,42468,14.25,73446.0,-4.67,-4.99,-4.93,0,*53
1495667262.01,42469,14.25,73444.8,-4.67,-4.99,-4.99,0,*58
1495667263.22,42470,14.25,73440.8,-4.67,-4.99,-4.99,0,*50
1495667264.43,42471,14.25,73444.0,-4.67,-4.99,-4.99,0,*51
1495667265.68,42472,14.25,73442.8,-4.65,-4.89,-4.93,0,*5B
1495667266.94,42473,14.25,73442.8,-4.63,-4.81,-4.81,0,*57
1495667268.17,42474,14.25,73440.3,-4.65,-4.77,-4.77,0,*56
1495667269.43,42475,14.25,73442.8,-4.63,-4.77,-4.81,0,*58
1495667270.67,42476,14.25,73444.0,-4.65,-4.77,-4.77,0,*54
1495667271.92,42477,14.25,73444.5,-4.63,-4.93,-4.81,0,*50
1495667273.18,42478,14.25,73446.0,-4.63,-4.93,-4.89,0,*57
1495667274.45,42479,14.25,73444.8,-4.63,-4.89,-4.89,0,*5D
1495667275.69,42480,14.25,73440.8,-4.61,-4.85,-4.73,0,*50
1495667276.94,42481,14.25,73444.5,-4.63,-4.77,-4.77,0,*5A
1495667278.18,42482,14.25,73444.3,-4.61,-4.77,-4.77,0,*5B
1495667279.43,42483,14.25,73444.0,-4.63,-4.77,-4.77,0,*58
1495667280.67,42484,14.25,73442.0,-4.61,-4.77,-4.73,0,*59
1495667281.91,42485,14.25,73442.5,-4.61,-4.73,-4.73,0,*5C
1495667283.14,42486,14.25,73440.0,-4.59,-4.73,-4.65,0,*53
1495667284.4,42487,14.25,73448.5,-4.59,-4.73,-4.73,0,*55
1495667285.66,42488,14.25,73448.5,-4.59,-4.77,-4.73,0,*5E
1495667286.91,42489,14.25,73448.3,-4.59,-4.77,-4.73,0,*5F
1495667288.17,42490,14.19,73444.0,-4.59,-4.73,-4.77,0,*57
1495667289.41,42491,14.25,73442.0,-4.57,-4.69,-4.69,0,*5C
1495667290.66,42492,14.25,73442.3,-4.59,-4.77,-4.73,0,*55
1495667291.92,42493,14.25,73444.3,-4.59,-4.73,-4.77,0,*54
1495667293.16,42494,14.19,73442.3,-4.57,-4.73,-4.69,0,*52
1495667294.42,42495,14.25,73450.0,-4.59,-4.73,-4.73,0,*56
1495667295.67,42496,14.25,73446.8,-4.59,-4.77,-4.77,0,*55
1495667296.91,42497,14.25,73446.5,-4.57,-4.73,-4.73,0,*5A
1495667298.15,42498,14.25,73444.8,-4.57,-4.73,-4.69,0,*5E
1495667299.4,42499,14.25,73444.8,-4.59,-4.85,-4.77,0,*57
1495667300.66,42500,14.25,73448.3,-4.55,-4.81,-4.81,0,*57
1495667301.9,42501,14.25,73450.8,-4.57,-4.73,-4.69,0,*5F
1495667303.14,42502,14.25,73452.3,-4.57,-4.73,-4.73,0,*57
1495667304.37,42503,14.25,73450.8,-4.57,-4.69,-4.69,0,*56
1495667305.61,42504,14.25,73446.5,-4.57,-4.73,-4.73,0,*51
1495667306.85,42505,14.25,73446.3,-4.57,-4.73,-4.81,0,*5D
1495667308.08,42506,14.25,73446.5,-4.57,-4.73,-4.81,0,*5E
1495667309.32,42507,14.25,73446.8,-4.57,-4.81,-4.85,0,*56
1495667310.58,42508,14.25,73450.0,-4.55,-4.81,-4.81,0,*5F
1495667311.84,42509,14.25,73448.0,-4.51,-4.77,-4.77,0,*5A
1495667313.1,42510,14.25,73448.8,-4.55,-4.73,-4.73,0,*56
1495667314.35,42511,14.25,73448.8,-4.55,-4.77,-4.73,0,*53
1495667315.61,42512,14.25,73448.5,-4.55,-4.81,-4.73,0,*59